CAPE
0 0 0 0 0 0 0 0 0 0 0 0 0 0 0 0 0 0 0 0 0 0 2 1 4 7 5 14 7 13 18 13 19 13 14 11 11 19
0 0 0 0 0 0 0 0 0 0 0 0 0 0 0 0 0 0 0 0 0 0 0 1 5 8 15 12 13 11 20 19 18 11 8 11 14 15
0 0 0 0 0 0 0 0 0 0 0 0 0 0 0 0 0 0 0 0 0 0 0 0 6 8 7 13 1 2 3 10 15 11 6 14 16 17
0 0 0 0 0 0 0 0 0 0 0 0 0 0 0 0 0 0 0 0 0 0 0 0 3 3 5 7 2 2 1 5 3 8 6 12 14 17
0 0 0 0 0 0 0 0 0 0 0 0 0 0 0 0 0 0 0 0 0 0 0 0 0 0 2 5 4 8 5 2 0 1 3 6 6 6
0 0 0 0 0 0 0 0 0 0 0 0 0 0 0 0 0 0 0 0 0 0 0 0 0 0 0 3 0 1 5 2 1 2 1 1 0 0
0 0 0 0 0 0 0 0 0 0 0 0 0 0 0 0 0 0 0 0 0 0 0 0 0 1 1 1 0 1 2 7 0 2 2 0 0 0
0 0 0 0 0 0 0 0 0 0 0 0 0 0 0 0 0 0 1 2 0 0 0 0 0 0 1 1 3 0 2 1 2 2 2 1 0 0
0 0 0 0 0 0 0 0 0 0 0 0 0 0 1 0 0 1 0 2 1 0 0 0 0 0 0 1 0 0 0 0 0 1 1 1 0 0
0 0 0 0 0 0 0 0 0 0 0 0 0 0 0 0 1 2 1 2 1 0 1 0 0 0 0 2 0 0 0 0 0 0 0 0 0 0
0 0 0 0 0 0 0 0 0 0 0 0 0 0 0 0 0 1 2 2 1 0 0 1 0 0 0 0 1 0 0 0 0 0 0 0 0 0
0 0 0 0 0 0 0 0 0 0 0 0 0 0 0 0 0 0 1 1 2 1 0 0 0 0 0 0 0 0 0 0 0 0 0 0 0 0
0 0 0 0 0 0 0 0 0 0 0 1 0 0 0 0 2 1 2 2 2 2 0 0 0 0 0 0 0 0 0 0 0 0 0 0 0 0
0 0 0 0 0 0 0 0 3 1 0 1 1 0 1 0 0 0 1 2 1 2 1 1 0 0 0 0 0 0 0 0 0 0 0 0 0 0
0 0 0 0 0 0 1 1 0 0 0 0 1 0 0 1 0 1 2 1 0 1 1 1 1 0 0 0 0 0 0 0 0 0 0 0 0 0
0 0 0 0 0 0 0 0 0 0 0 0 0 0 1 1 1 0 1 0 1 0 1 1 0 0 0 0 0 0 0 0 0 0 0 0 0 0
0 0 0 0 0 0 0 0 0 0 0 0 0 1 1 0 1 0 1 0 1 0 0 0 0 0 0 0 0 0 0 0 0 0 0 0 0 0
0 0 0 0 0 0 0 0 0 0 0 0 1 1 1 1 1 0 1 1 1 0 0 0 0 0 0 0 0 0 0 0 0 0 0 0 0 0
0 0 0 0 0 0 0 0 0 0 0 0 0 0 1 1 1 1 0 0 1 0 0 0 0 0 0 0 0 0 0 0 0 0 0 0 0 0
0 0 0 0 0 0 0 0 0 0 0 0 0 0 0 0 1 1 0 1 1 0 0 0 0 0 0 0 0 0 0 0 0 0 0 0 0 0
0 0 0 0 0 0 0 0 0 0 0 0 0 0 0 0 0 0 0 0 0 0 0 0 0 0 0 0 0 0 0 0 0 0 0 0 0 0
0 0 0 0 0 0 0 0 0 0 0 0 0 0 0 0 0 0 0 0 0 0 0 0 0 0 0 0 0 0 0 0 0 0 0 0 0 0
0 0 0 0 0 0 0 0 0 0 0 0 0 0 0 0 0 0 0 0 0 0 0 0 0 0 0 0 0 0 0 0 0 0 0 0 0 0
CIN
-0 -0 -0 -0 -0 -0 -0 -0 -0 -0 -0 -0 -0 -0 -0 -0 -0 -0 -0 -0 -0 -0 -0 -1 -0 -0 -0 -1 -0 -0 -0 -1 -0 -0 -0 -0 -0 -0
-0 -0 -0 -0 -0 -0 -0 -0 -0 -0 -0 -0 -0 -0 -0 -0 -0 -0 -0 -0 -0 -0 -0 -0 -0 -0 -0 -0 -0 -0 -0 -0 -0 -0 -0 -0 -0 -0
-0 -0 -0 -0 -0 -0 -0 -0 -0 -0 -0 -0 -0 -0 -0 -0 -0 -0 -0 -0 -0 -0 -0 -0 -0 -0 -0 -0 -1 -0 -0 -0 -0 -0 -0 -0 -0 -0
-0 -0 -0 -0 -0 -0 -0 -0 -0 -0 -0 -0 -0 -0 -0 -0 -0 -0 -0 -0 -0 -0 -0 -0 -0 -0 -0 -0 -1 -0 -0 -1 -0 -0 -0 -0 -0 -0
-0 -0 -0 -0 -0 -0 -0 -0 -0 -0 -0 -0 -0 -0 -0 -0 -0 -0 -0 -0 -0 -0 -0 -0 -0 -0 -0 -0 -0 -0 -0 -1 -1 -1 -0 -0 -0 -0
-0 -0 -0 -0 -0 -0 -0 -0 -0 -0 -0 -0 -0 -0 -0 -0 -0 -0 -0 -0 -0 -0 -0 -0 -0 -0 -0 -0 -1 -0 -0 -1 -1 -0 -0 -0 -0 -0
-0 -0 -0 -0 -0 -0 -0 -0 -0 -0 -0 -0 -0 -0 -0 -0 -0 -0 -0 -0 -0 -0 -0 -0 -0 -0 -0 -0 -0 -0 -0 -0 -0 -1 -0 -1 -0 -0
-0 -0 -0 -0 -0 -0 -0 -0 -0 -0 -0 -0 -0 -0 -0 -0 -0 -0 -0 -0 -0 -0 -0 -0 -0 -0 -0 -0 -0 -1 -0 -0 -1 -1 -2 -0 -0 -0
-0 -0 -0 -0 -0 -0 -0 -0 -0 -0 -0 -0 -0 -0 -0 -0 -0 -0 -0 -0 -0 -0 -0 -0 -0 -0 -0 -0 -0 -0 -0 -0 -0 -0 -1 -1 -0 -0
-0 -0 -0 -0 -0 -0 -0 -0 -0 -0 -0 -0 -0 -0 -0 -0 -1 -0 -0 -0 -0 -0 -0 -0 -0 -0 -0 -0 -0 -0 -0 -0 -0 -0 -0 -0 -0 -0
-0 -0 -0 -0 -0 -0 -0 -0 -0 -0 -0 -0 -0 -0 -0 -0 -0 -0 -0 -0 -0 -0 -0 -0 -0 -0 -0 -0 -0 -0 -0 -0 -0 -0 -0 -0 -0 -0
-0 -0 -0 -0 -0 -0 -0 -0 -0 -0 -0 -0 -0 -0 -0 -0 -0 -0 -0 -0 -0 -0 -0 -0 -0 -0 -0 -0 -0 -0 -0 -0 -0 -0 -0 -0 -0 -0
-0 -0 -0 -0 -0 -0 -0 -0 -0 -0 -0 -0 -0 -0 -0 -0 -0 -0 -0 -0 -0 -0 -0 -0 -0 -0 -0 -0 -0 -0 -0 -0 -0 -0 -0 -0 -0 -0
-0 -0 -0 -0 -0 -0 -0 -0 -0 -0 -0 -0 -0 -0 -0 -0 -0 -0 -0 -0 -0 -0 -0 -0 -0 -0 -0 -0 -0 -0 -0 -0 -0 -0 -0 -0 -0 -0
-0 -0 -0 -0 -0 -0 -0 -0 -0 -0 -0 -0 -0 -0 -0 -0 -0 -0 -0 -0 -0 -0 -0 -0 -0 -0 -0 -0 -0 -0 -0 -0 -0 -0 -0 -0 -0 -0
-0 -0 -0 -0 -0 -0 -0 -0 -0 -0 -0 -0 -0 -0 -0 -0 -0 -0 -0 -0 -0 -0 -0 -0 -0 -0 -0 -0 -0 -0 -0 -0 -0 -0 -0 -0 -0 -0
-0 -0 -0 -0 -0 -0 -0 -0 -0 -0 -0 -0 -0 -0 -0 -0 -0 -0 -0 -0 -0 -0 -0 -0 -0 -0 -0 -0 -0 -0 -0 -0 -0 -0 -0 -0 -0 -0
-0 -0 -0 -0 -0 -0 -0 -0 -0 -0 -0 -0 -0 -0 -0 -0 -0 -0 -0 -0 -0 -0 -0 -0 -0 -0 -0 -0 -0 -0 -0 -0 -0 -0 -0 -0 -0 -0
-0 -0 -0 -0 -0 -0 -0 -0 -0 -0 -0 -0 -0 -0 -0 -0 -0 -0 -0 -0 -0 -0 -0 -0 -0 -0 -0 -0 -0 -0 -0 -0 -0 -0 -0 -0 -0 -0
-0 -0 -0 -0 -0 -0 -0 -0 -0 -0 -0 -0 -0 -0 -0 -0 -0 -0 -0 -0 -0 -0 -0 -0 -0 -0 -0 -0 -0 -0 -0 -0 -0 -0 -0 -0 -0 -0
-0 -0 -0 -0 -0 -0 -0 -0 -0 -0 -0 -0 -0 -0 -0 -0 -0 -0 -0 -0 -0 -0 -0 -0 -0 -0 -0 -0 -0 -0 -0 -0 -0 -0 -0 -0 -0 -0
-0 -0 -0 -0 -0 -0 -0 -0 -0 -0 -0 -0 -0 -0 -0 -0 -0 -0 -0 -0 -0 -0 -0 -0 -0 -0 -0 -0 -0 -0 -0 -0 -0 -0 -0 -0 -0 -0
-0 -0 -0 -0 -0 -0 -0 -0 -0 -0 -0 -0 -0 -0 -0 -0 -0 -0 -0 -0 -0 -0 -0 -0 -0 -0 -0 -0 -0 -0 -0 -0 -0 -0 -0 -0 -0 -0
Wind_Speed
10 12 14 17 19 20 22 24 27 32 31 27 28 31 33 34 36 39 39 42 42 43 46 46 48 47 48 49 50 52 52 53 53 52 53 53 53 53
10 11 15 17 19 19 21 22 25 28 30 26 27 30 32 33 35 38 38 39 40 42 45 46 46 44 45 46 47 48 49 49 50 51 51 52 52 52
10 12 14 16 18 19 20 22 25 25 28 26 27 29 32 34 35 36 36 38 39 41 44 43 43 43 42 43 44 45 46 47 48 49 50 51 51 52
10 12 15 15 17 18 20 22 24 24 26 29 28 29 31 33 34 36 37 37 39 38 41 40 40 40 41 42 42 42 43 46 47 47 48 50 50 50
11 12 14 15 16 17 19 22 22 23 24 26 29 28 30 32 34 34 36 37 38 36 38 38 38 37 38 39 39 40 42 44 45 46 47 48 50 49
12 13 13 14 15 17 19 21 22 23 24 26 28 29 30 32 33 37 39 38 38 34 37 35 36 35 35 35 36 38 40 42 44 45 46 47 48 48
13 13 14 13 14 16 19 20 21 22 24 27 28 30 32 35 36 36 39 39 37 32 39 36 34 35 34 32 34 36 38 40 42 44 45 46 47 48
14 14 13 13 13 17 17 19 19 21 24 26 28 31 32 33 34 36 37 40 40 32 40 38 32 35 33 30 32 33 37 39 40 42 44 46 46 47
13 13 13 13 15 16 17 18 19 20 22 24 27 29 31 32 33 34 34 35 36 35 37 36 32 34 31 27 29 32 35 37 39 41 43 45 46 45
13 13 13 14 16 17 18 18 19 21 22 23 24 26 27 29 28 30 31 32 33 31 31 35 33 33 30 25 26 31 33 36 38 40 42 43 44 42
13 13 14 16 17 17 18 20 21 22 23 23 23 24 27 26 26 28 30 33 35 32 29 30 32 34 29 25 23 28 31 35 36 38 40 41 41 40
15 15 15 17 18 17 18 19 22 23 24 24 23 24 24 25 26 23 27 31 32 34 26 30 31 31 32 23 25 26 29 33 33 36 38 38 38 37
16 17 17 18 19 18 18 20 22 23 24 24 25 25 25 26 27 23 23 26 28 28 26 27 28 28 26 28 26 24 29 31 32 33 35 35 35 36
18 19 21 20 18 18 19 20 21 23 24 26 26 27 27 28 27 25 24 23 22 24 24 24 24 24 26 27 26 26 28 28 30 31 32 32 32 32
20 22 22 19 19 19 20 20 21 22 25 26 26 26 26 26 26 26 24 24 23 22 21 20 20 21 21 23 24 24 27 26 27 29 29 29 29 30
22 24 19 19 19 20 20 20 20 22 24 25 25 25 26 26 27 26 26 26 26 25 21 18 18 19 20 20 20 21 22 24 28 28 27 26 26 27
24 21 21 21 21 21 21 21 22 23 24 24 24 25 26 26 27 25 25 25 25 25 24 20 17 18 17 18 20 19 20 21 25 27 26 25 23 24
22 23 23 22 22 22 22 22 22 23 23 24 24 25 26 26 27 26 24 24 25 24 23 22 21 22 21 17 13 18 19 20 24 24 24 25 23 22
24 24 23 23 22 22 22 23 23 23 23 24 25 25 25 26 26 25 24 24 25 24 23 22 22 22 24 24 18 16 18 20 23 24 23 23 23 21
25 24 23 23 23 23 23 23 23 23 24 24 24 23 24 24 25 25 24 25 25 25 25 23 23 21 21 22 21 20 19 20 22 25 25 22 20 20
24 24 24 24 24 23 23 23 23 24 23 23 23 23 23 23 24 23 23 23 24 24 25 25 23 21 20 19 21 22 21 18 21 24 25 25 25 22
25 26 25 25 24 24 24 24 24 23 22 22 22 22 22 22 23 23 23 24 24 24 24 22 21 21 21 21 21 23 23 24 24 23 20 19 23 24
27 26 26 25 24 24 24 24 23 22 22 22 22 21 22 22 21 22 23 23 24 24 24 24 23 21 21 20 21 22 23 26 27 27 26 21 18 18
Wind_Direction
333 340 341 342 344 347 350 348 346 341 342 349 349 352 352 352 352 352 353 353 354 354 354 354 354 355 356 357 358 358 357 358 359 357 355 354 352 349
330 336 338 340 345 348 350 352 350 346 342 349 349 350 352 352 352 353 354 355 355 356 356 356 356 357 357 358 358 359 358 360 359 358 357 355 352 349
327 330 334 340 342 347 351 349 351 350 346 348 349 351 351 351 354 355 356 355 356 357 357 357 358 358 359 359 359 0 360 0 358 357 357 355 351 347
318 325 331 339 341 346 347 349 349 351 348 345 348 350 351 353 354 355 356 357 357 357 358 359 359 0 0 0 1 2 2 360 360 360 358 356 351 348
314 322 327 334 337 343 345 347 350 349 349 347 346 349 351 353 354 356 356 357 358 359 359 359 0 360 0 1 3 4 3 1 2 1 0 357 353 347
312 319 326 328 334 340 343 346 346 346 347 346 346 346 350 353 354 352 353 357 356 360 360 0 1 1 1 2 4 3 3 4 4 1 359 356 354 347
310 316 322 329 335 340 340 342 343 344 345 343 344 345 347 349 350 351 350 352 354 360 357 359 0 1 3 5 4 3 4 3 2 0 359 357 353 348
300 309 318 325 334 337 339 340 340 341 340 342 343 343 345 347 349 349 349 350 352 1 355 355 0 359 2 4 3 4 3 1 360 359 357 354 351 350
298 303 311 320 328 330 332 335 336 338 339 340 340 342 343 347 347 347 349 349 348 350 353 354 359 357 1 3 3 3 2 360 358 357 352 350 349 352
293 298 307 314 321 323 325 327 330 334 336 339 340 342 345 347 348 347 347 347 348 351 355 352 357 356 359 1 2 2 359 357 355 352 346 345 346 352
291 297 304 311 316 316 318 320 324 327 333 336 337 341 344 347 347 346 344 346 347 350 355 354 355 354 357 359 3 2 359 354 354 351 344 343 343 351
293 298 302 309 311 311 313 317 320 324 330 333 336 339 343 345 343 341 343 343 345 347 356 352 353 357 355 3 1 1 358 353 353 351 348 344 344 350
289 295 302 302 305 305 309 313 316 323 327 329 331 335 339 341 343 344 343 342 342 343 350 352 352 355 356 353 358 1 357 352 352 352 349 347 348 350
290 300 303 300 300 302 306 310 314 320 325 327 329 331 334 337 340 340 340 340 339 337 343 348 348 350 350 350 353 356 354 353 351 351 352 351 352 353
297 303 301 297 299 301 305 311 316 319 321 323 326 329 332 335 338 338 337 338 337 337 338 340 342 346 348 348 347 351 352 351 350 349 351 354 356 357
299 301 296 297 299 303 307 311 314 317 320 322 326 329 332 334 335 337 337 338 338 338 341 340 342 345 342 344 346 346 349 349 341 344 348 354 357 360
300 294 293 295 297 300 305 309 314 317 319 322 324 326 329 331 333 336 336 337 335 336 339 342 341 342 339 340 341 345 346 344 338 339 342 343 355 357
287 287 288 291 294 299 303 308 313 316 319 322 323 325 327 329 332 334 334 334 333 334 335 339 340 341 342 340 334 340 343 341 335 336 339 336 342 353
283 284 286 289 294 298 302 306 311 316 319 321 322 324 327 329 330 331 332 333 332 333 334 337 337 337 334 333 341 338 338 337 333 331 334 334 335 343
281 283 284 289 293 296 300 303 308 312 315 318 320 323 326 327 328 330 331 331 332 332 333 334 334 333 331 334 334 333 331 330 327 323 325 332 337 338
277 279 285 288 291 294 297 301 305 308 312 316 319 321 325 326 326 328 329 330 331 332 331 333 336 339 337 336 329 328 327 323 320 318 319 321 324 330
277 279 283 286 289 291 294 298 302 305 308 312 316 319 323 325 325 326 327 329 330 331 331 335 337 336 334 330 324 324 322 319 317 313 315 317 319 322
277 279 282 284 287 289 292 295 298 302 306 310 314 318 322 323 324 325 327 328 329 330 333 333 335 335 332 330 325 323 320 315 313 311 310 312 310 310